CZ-6A DEB, 54515

Orbit data source: Space-Track

CZ-6A DEB, 54515 is space debris in SSO originally from a launch on Fri, 11 Nov 2022 UTC launched from the Taiyaun Space Center, China (TSC). Debris objects in space refer to the collection of defunct objects orbiting the Earth. Examples of debris include non-operational satellites, rocket bodies, and fragments generated from explosions, collisions, or faulty payload assembly.

Loading next visibility...
Identifier
54515, 2022-151JT
Orbit
SSO
Country
Flag of CNCN / PRC
Related business
Manufacturer
SAST
Mission
Spacecraft
Bus & Motor
Unknown
Mass
Unknown
Launch date (UTC)
2022-11-11 (3 years ago)
Launch vehicle
Unknown
Launch site
Taiyaun Space Center, China (TSC)
Object type
Payload
Rocket body
Debris
Shape & HBR
Unknown shape, 0.2 m
Radar Cross Section
Small (<0.1 m²)

Expand to show TLE details & history
Last TLE update: 13 hours ago

TLE from 13 hours ago
0 CZ-6A DEB
1 54515U 22151JT  26130.35488610  .00000354  00000-0  12197-3 0  9993
2 54515  98.5627 155.0887 0119461 113.3652 248.0154 14.37929767182882
Epoch: 2026-05-10T08:31Z
TLE epoch observation values (Epoch: 2026-05-10T08:31:02.159Z)
Latitude
-0°
Longitude
159.17054°
Altitude
801.115 km
Speed
7.436 km/s
True Right ascension
10h 20m 21s
True Declination
0° 00' 00"
Sunlit
Object was in daylight at epoch
Visualization orbit readout
Latitude
Unknown
Longitude
Unknown
Altitude
Unknown
Speed
Unknown
Apparent Right ascension
Unknown
Apparent Declination
Unknown
Sunlit
N/A
Visualization observer readout
Local Sidereal Time
05:30:55
Azimuth
Unknown
Elevation
Unknown
Doppler factor
Unknown
Orbital elements
Apogee altitude
847.776 km
Perigee altitude
677.171 km
Semi-major axis
7,140.611 km
Eccentricity
0.01195
Inclination
98.5627°
RAAN
155.0887°
Arg. of periapsis
113.3652°
True anomaly
246.75318°
Mean anomaly
248.0154°
Eccentric anomaly
247.38357°
Mean motion
3.597 °/min
Orbital period
100.08 mins
BSTAR
0.00012197
Loading maneuver chart data...
Computing Atmospheric mass density...
Loading historical data...
Loading historical data...
Loading historical data...
Loading historical data...
Loading historical data...
Loading historical data...
Loading historical data...

Documentation

Showing up to 5 results
|